Tracking 19564 objects as of 20-Mar-2019
HD Live streaming from Space Station
objects crossing your sky now

GEOSAT

Track GEOSAT now!
10-day predictions
GEOSAT is classified as:


NORAD ID: 15595
Int'l Code: 1985-021A
Perigee: 770.4 km
Apogee: 773.4 km
Inclination: 108.0 °
Period: 100.1 minutes
Semi major axis: 7142 km
RCS: 9.5926 m2 (large)
Launch date: March 13, 1985
Source: United States (US)
Launch site: AIR FORCE WESTERN TEST RANGE (AFWTR)
aabbcc
Your satellite tracking list
Your tracking list is empty




NASA's NSSDC Master Catalog

Two Line Element Set (TLE):
1 15595U 85021A   19077.69167775 -.00000083 +00000-0 +17174-4 0  9999
2 15595 108.0310 342.1544 0002153 293.3361 088.2252 14.38106077782057
Source of the keplerian elements: AFSPC